{"data":{"norad_id":65471,"epoch":"2026-09-20T17:28:52.419936Z","epoch_age_seconds":95174,"freshness":"FRESH","line1":"1 65471U 25195P   26263.72838449  .00028975  00000+0  86637-3 0  9992","line2":"2 65471  53.1587  68.7946 0000746  47.8305 312.2761 15.34363707 59902","mean_motion":15.34363707,"eccentricity":7.46e-5,"inclination_deg":53.1587,"raan_deg":68.7946,"arg_perigee_deg":47.8305,"mean_anomaly_deg":312.2761,"bstar":0.00086637,"rev_number":5990,"period_min":93.84997790488,"perigee_km":462.30077804855,"apogee_km":463.32144750697,"semimajor_km":6840.9481127778,"source":"CELESTRAK","updated_at":"2026-09-21T09:00:35.616534Z"}}